TimeMST,TemperatureF,Dew PointF,Humidity,Sea Level PressureIn,VisibilityMPH,Wind Direction,Wind SpeedMPH,Gust SpeedMPH,PrecipitationIn,Events,Conditions,WindDirDegrees,DateUTC
12:57 AM,80.1,44.1,28,29.72,10.0,South,4.6,-,N/A,,Mostly Cloudy,170,2013-06-10 07:57:00
1:57 AM,79.0,43.0,28,29.72,10.0,WSW,3.5,-,N/A,,Mostly Cloudy,250,2013-06-10 08:57:00
2:57 AM,78.1,44.1,30,29.72,10.0,SW,5.8,-,N/A,,Mostly Cloudy,230,2013-06-10 09:57:00
3:57 AM,75.9,45.0,33,29.73,10.0,SSW,3.5,-,N/A,,Mostly Cloudy,200,2013-06-10 10:57:00
4:57 AM,75.0,45.0,34,29.73,10.0,Calm,Calm,-,N/A,,Mostly Cloudy,0,2013-06-10 11:57:00
5:57 AM,75.0,43.0,32,29.75,10.0,Calm,Calm,-,N/A,,Scattered Clouds,0,2013-06-10 12:57:00
6:57 AM,80.1,42.1,26,29.76,10.0,ENE,5.8,-,N/A,,Scattered Clouds,70,2013-06-10 13:57:00
7:57 AM,84.0,42.1,23,29.78,10.0,SE,5.8,-,N/A,,Partly Cloudy,130,2013-06-10 14:57:00
8:57 AM,91.0,42.1,18,29.78,10.0,SE,17.3,-,N/A,,Partly Cloudy,140,2013-06-10 15:57:00
9:57 AM,95.0,37.0,13,29.78,10.0,SSE,15.0,-,N/A,,Partly Cloudy,160,2013-06-10 16:57:00
10:57 AM,100.0,39.0,12,29.77,10.0,SSE,18.4,-,N/A,,Clear,150,2013-06-10 17:57:00
11:57 AM,102.9,32.0,8,29.76,10.0,SSE,15.0,-,N/A,,Clear,150,2013-06-10 18:57:00
12:57 PM,105.1,28.9,7,29.74,10.0,SE,13.8,-,N/A,,Clear,140,2013-06-10 19:57:00
1:57 PM,107.1,30.9,7,29.72,10.0,South,16.1,21.9,N/A,,Clear,170,2013-06-10 20:57:00
2:57 PM,106.0,27.0,6,29.71,10.0,South,17.3,-,N/A,,Clear,180,2013-06-10 21:57:00
3:57 PM,107.1,26.1,6,29.69,10.0,South,13.8,17.3,N/A,,Clear,180,2013-06-10 22:57:00
4:57 PM,107.1,28.0,6,29.67,10.0,South,15.0,-,N/A,,Clear,170,2013-06-10 23:57:00
5:57 PM,105.1,28.9,7,29.66,10.0,SSE,13.8,-,N/A,,Clear,160,2013-06-11 00:57:00
6:57 PM,100.9,32.0,9,29.67,10.0,South,9.2,-,N/A,,Clear,180,2013-06-11 01:57:00
7:57 PM,96.1,35.1,12,29.69,10.0,West,8.1,-,N/A,,Partly Cloudy,280,2013-06-11 02:57:00
8:57 PM,91.9,39.9,16,29.71,10.0,WSW,4.6,-,N/A,,Partly Cloudy,250,2013-06-11 03:57:00
9:57 PM,88.0,42.1,20,29.74,10.0,SW,3.5,-,N/A,,Partly Cloudy,230,2013-06-11 04:57:00
10:57 PM,87.1,39.9,19,29.75,10.0,Calm,Calm,-,N/A,,Partly Cloudy,0,2013-06-11 05:57:00
11:57 PM,86.0,39.0,19,29.74,10.0,SW,4.6,-,N/A,,Partly Cloudy,230,2013-06-11 06:57:00